logo
Rechercher aéroport 
image banner adimage banner adimage banner ad
image banner ad

NVVV - Port Vila

Situé à Port Vila, Vanuatu

ICAO - NVVV, IATA - VLI

Données fournies par Airmate  

Information générale

Coordonnées: S17°41'58" E168°19'11"
Élévation : 70 feet MSL.
 
Voir autres Aéroports à Shefa

Données opérationnelles

Special qualification required
Heure actuelle UTC:
Heure actuelle locale:
Météo
METAR: NVVV 130000Z 11003KT 1000 +SHRA FEW010 BKN015 OVC040 26/26 Q1013 INTER 0000/0200 0500 +SHRA SCT005 BKN014 OVC038
TAF: TAF NVVV 122300Z 1300/1324 11010KT 9999 SCT020 BKN040 INTER 1300/1306 9000 SHRA SCT012 BKN018 INTER 1303/1306 6000 RA SCT009 BKN016 OVC030
Voir NOTAMs / SUP AIP / TFR affectant cet aéroport [VIEW]
Fréquences de communication: [VIEW]

Pistes:

Identifiant RWYQFULongueur (ft)Largeur (ft)SurfaceLDA (ft)
11118°8530148ASP
29298°8530148ASP

Coordonnées de l'aéroport

Adresse: Port Vila Vanuatu

Vue satellite de NVVV